Temp_Advection
nan nan nan nan nan nan nan nan nan nan nan nan nan nan nan nan nan nan nan nan nan nan nan nan nan nan nan nan nan nan nan nan nan nan nan nan nan nan nan nan nan nan nan nan nan nan nan nan nan nan nan nan nan nan nan nan nan nan nan nan nan nan nan
nan -0 -0 0 0 -0 -0 -1 -0 -0 0 0 0 1 1 -0 -1 -1 -0 0 0 0 0 0 0 0 1 1 1 0 1 1 1 1 1 1 1 1 1 1 2 2 1 1 1 1 1 0 0 0 0 0 0 0 0 1 1 0 0 0 0 0 nan
nan 0 -0 -0 0 0 -0 -0 -1 -0 -0 0 0 1 1 1 0 -0 -0 -0 -0 -0 0 0 0 0 1 1 1 0 1 1 1 1 1 1 1 1 1 1 1 1 1 0 1 1 1 0 0 0 0 1 1 1 1 1 1 0 0 0 0 0 nan
nan -0 -0 -0 0 0 0 -0 -0 -0 -0 -0 0 0 1 1 1 0 -0 -1 -1 -1 -1 -0 -0 0 1 1 0 0 0 1 1 1 1 1 1 1 1 1 1 1 0 0 1 1 1 1 1 1 1 1 1 1 1 1 0 0 0 -0 -0 0 nan
nan -0 -0 -0 -0 0 1 0 -0 0 -0 -0 -0 0 1 1 1 1 -0 -0 -0 -1 -1 -1 -0 0 1 1 0 0 0 1 1 1 1 1 0 0 0 0 0 0 0 1 1 1 1 1 1 1 1 1 1 1 1 0 0 -0 -0 -0 -0 0 nan
nan -0 -0 -1 -1 -0 1 1 0 0 0 -0 -1 -0 0 1 1 0 -0 0 0 -0 -0 -0 -0 0 1 0 -0 0 0 1 1 1 1 1 1 0 0 0 0 1 1 1 1 1 1 1 1 1 1 0 1 1 1 0 0 -0 -0 0 0 0 nan
nan -1 -1 -1 -1 -0 0 0 0 0 0 0 -0 -0 -0 -0 0 0 0 0 1 1 0 -0 -0 0 0 0 0 0 0 1 1 1 1 1 1 1 1 1 1 1 1 1 1 1 1 1 2 1 1 1 1 1 1 0 -0 -0 -0 1 1 -0 nan
nan -1 -1 -1 -1 -0 -0 0 0 0 0 1 1 0 -1 -1 -0 -0 0 1 1 1 0 -0 -0 -0 -0 -0 -0 0 0 1 1 1 1 1 1 1 1 1 1 1 1 1 1 1 2 2 2 2 1 1 1 1 -0 -1 -1 -0 0 1 0 -0 nan
nan -1 -2 -1 -1 -0 -0 -0 0 0 1 1 0 -0 -0 -0 -0 -0 0 0 1 1 1 1 -0 -1 -1 -0 0 0 0 0 1 1 1 1 1 1 0 1 1 1 1 1 1 1 2 2 1 1 1 -0 -1 -1 -1 -1 -0 0 1 1 0 0 nan
nan -1 -2 -2 -1 -0 -0 -0 0 1 1 1 -0 -0 -0 -0 -0 0 0 0 0 1 1 1 -0 -1 -1 0 1 0 0 0 0 0 0 1 1 1 0 1 0 0 1 1 1 1 1 0 0 1 0 -1 -1 -0 0 0 0 1 1 1 1 1 nan
nan -1 -1 -2 -1 -0 -0 -0 0 1 0 -0 0 0 -0 -0 -0 0 1 0 0 0 1 1 -0 -1 -1 0 0 0 0 0 -0 -0 0 1 0 0 0 0 0 0 0 0 0 1 0 -0 0 1 0 -1 -1 -0 0 0 0 1 1 0 0 0 nan
nan -1 -1 -1 -1 -0 -0 -0 0 0 -0 -0 -0 -0 0 -0 -0 0 0 0 0 0 0 0 -0 -0 -1 -0 0 1 0 0 -0 -0 0 1 1 1 0 0 0 0 0 -0 -0 -0 -1 -0 1 1 0 -1 -2 -0 1 0 1 1 -0 -0 -0 -0 nan
nan -1 -1 -1 -0 -0 -0 0 0 0 -0 -0 -0 -0 0 0 0 0 0 0 0 0 0 0 -0 -1 -1 -0 1 1 1 0 0 -0 0 1 1 1 1 1 0 0 -0 0 1 -0 -1 -0 0 0 -1 -2 -1 1 1 1 0 -0 -1 -0 0 -0 nan
nan -1 -0 -0 -0 0 0 0 0 -0 -0 -0 -0 0 0 0 -0 0 0 0 0 0 -0 -0 -1 -1 -0 0 1 1 1 1 0 0 1 1 1 1 1 1 1 1 1 1 1 0 -0 0 0 0 -0 -1 0 1 1 0 0 -0 0 1 1 0 nan
nan -0 -0 -0 -0 -0 -0 -0 0 0 0 0 0 0 0 -0 0 0 0 0 -0 -0 -0 -0 -0 -0 0 0 1 1 1 1 1 1 1 1 1 1 1 1 1 1 1 1 1 0 0 0 1 1 1 1 1 2 1 1 0 1 1 2 1 0 nan
nan -0 -0 -0 -0 -0 -1 -0 0 0 0 0 0 0 0 0 0 -0 -0 -0 -0 -0 -0 0 -0 -0 0 1 0 0 1 1 1 1 2 2 1 1 1 1 1 1 1 1 1 0 0 1 1 1 2 2 2 1 1 1 1 1 1 1 1 -1 nan
nan -0 -0 -0 -0 -0 -0 -1 -0 0 0 -0 -0 0 0 0 -0 -0 -0 -0 -0 0 0 0 0 0 0 0 0 0 1 1 1 2 2 2 1 1 1 1 1 1 1 1 1 1 1 1 1 1 1 1 1 1 1 1 1 1 1 1 -1 -2 nan
nan -0 -0 -0 -0 -0 -0 -0 -0 0 0 -0 -0 0 0 -0 -0 0 0 -0 0 0 -0 -1 0 1 1 1 0 0 1 1 1 2 2 1 1 1 1 1 1 1 1 1 1 1 1 1 1 1 1 1 0 -0 0 1 1 1 1 -0 -1 -1 nan
nan -0 -0 -0 -0 0 0 -0 -0 0 -0 -0 -0 0 0 0 0 0 -0 -0 0 0 -0 -0 1 1 1 1 1 1 1 2 1 1 1 1 1 1 0 0 1 1 1 1 1 1 1 1 1 1 1 -0 -1 -1 0 1 0 0 0 -0 -0 0 nan
nan -0 -0 -0 -0 0 0 0 -0 -0 -0 -0 -0 -0 0 -0 -0 -0 -0 0 0 0 -0 1 1 1 1 1 1 1 1 1 1 1 1 1 1 1 0 0 1 1 1 1 1 1 1 1 0 -0 -1 -1 -1 0 1 1 0 0 0 -0 0 0 nan
nan -0 -0 -0 -0 0 0 0 0 0 -0 -0 -0 -0 0 0 -0 -0 -0 0 0 0 1 1 1 1 1 1 1 1 1 1 1 1 1 1 1 0 0 1 1 1 1 1 1 1 0 -0 -0 -0 -0 -0 0 0 0 0 0 0 0 0 0 0 nan
nan 0 -0 -0 -0 0 0 -0 0 0 -0 -0 -0 -0 0 0 0 -0 -0 0 0 1 1 1 0 1 1 1 1 0 0 0 1 1 1 1 1 1 1 1 1 1 1 1 1 0 -0 -0 0 0 -0 -0 -0 0 0 0 0 0 0 0 0 0 nan
nan -0 -0 -0 0 0 0 -0 -0 -0 -0 -0 -0 -0 0 0 0 -0 -0 0 0 0 0 0 0 1 1 1 0 0 0 0 0 0 0 1 1 1 1 1 1 1 1 0 0 -0 0 1 1 0 -0 -0 0 1 0 0 0 0 0 0 0 0 nan
nan -0 -0 -0 0 0 0 -0 -0 -0 -0 -0 -0 -0 0 0 -0 -0 -0 0 0 0 0 0 0 0 0 0 1 0 0 0 0 0 0 1 1 1 1 1 1 1 0 0 0 0 1 1 0 -0 -0 0 1 1 0 0 0 0 0 0 0 0 nan
nan -0 -0 -0 0 0 0 -0 -0 -0 -0 -0 -0 -0 0 -0 -0 -0 0 0 0 0 0 0 0 0 0 0 0 0 0 0 0 0 1 0 0 0 0 1 0 0 0 0 0 1 0 -0 -0 -0 0 0 0 0 -0 0 0 0 0 0 0 0 nan
nan -1 -1 -0 -0 -0 -0 -0 -0 -0 -0 -0 -0 -0 -0 -0 0 0 0 0 0 0 0 0 0 0 0 0 0 0 0 0 1 1 0 0 0 0 0 0 -0 -0 -0 0 0 0 0 -0 -0 0 0 0 0 -0 0 0 0 0 0 0 0 0 nan
nan -1 -1 -1 -1 -0 -0 -0 -0 -0 -0 -0 -0 -0 0 0 0 0 0 0 0 0 0 0 0 0 0 0 0 0 0 1 1 1 0 0 0 0 0 0 0 0 1 1 0 0 -0 -0 0 0 0 -0 -0 0 0 0 0 0 0 0 -0 0 nan
nan -1 -1 -1 -1 -1 -1 -1 -0 -0 -0 -0 -0 0 0 0 0 0 0 0 0 0 0 0 0 0 0 0 0 0 0 0 0 0 0 0 0 0 0 0 1 1 1 1 -0 -0 -0 0 0 -0 -0 0 0 0 0 0 0 0 0 -0 -0 0 nan
nan -0 -0 -0 -0 -1 -1 -1 -0 -0 -0 -0 -0 0 0 0 0 0 0 0 -0 -0 -0 0 0 0 0 0 0 0 0 0 0 0 0 1 0 0 0 1 1 1 0 -0 -0 -0 -0 -0 -0 -0 -0 0 0 -0 -0 0 0 0 0 0 -0 -0 nan
nan 0 0 0 0 0 -0 -0 -0 -0 -0 -0 0 0 0 0 0 0 0 -0 -0 -0 -0 -0 -0 -0 0 0 0 0 0 0 0 -0 0 0 0 1 1 1 0 0 -0 -0 -0 0 0 -0 -0 -0 -0 -0 -0 -0 -0 0 0 0 0 0 0 -0 nan
nan 1 1 1 1 0 0 0 -0 -0 -0 -0 0 0 -0 0 0 0 0 0 -0 -0 -0 -0 -0 -0 0 0 0 0 -0 -0 -0 -0 -0 -0 0 0 0 0 -0 -0 -0 -0 -0 -0 -0 -0 0 0 -0 -0 0 0 0 0 0 0 0 -0 -0 -0 nan
nan 0 0 0 0 0 0 0 -0 -0 -0 0 0 -0 0 0 0 0 0 0 0 -0 -0 -0 -0 -0 0 0 0 0 0 -0 -0 -0 -0 -0 -0 -0 -0 -0 -0 -0 -0 -0 -0 -0 -0 0 0 0 0 0 0 0 0 0 -0 -0 -0 -0 -0 -0 nan
nan 0 -0 -0 -0 -0 -0 -0 -0 -0 0 0 0 0 0 0 0 0 0 0 0 -0 -0 -0 -0 -0 -0 0 0 0 0 0 0 -0 -0 -0 -0 -0 -0 -0 -0 -0 -0 0 0 0 0 0 0 0 0 0 0 0 -0 -0 -0 -0 0 -0 -0 -0 nan
nan -0 -0 -0 -0 -0 -0 0 0 0 0 0 0 0 0 0 0 0 0 0 0 0 -0 -0 -0 -0 -0 -0 0 0 0 0 0 0 -0 -0 -0 -0 -0 -0 -0 -0 -0 -0 0 0 0 0 0 0 0 0 -0 -0 -0 -0 0 0 -0 -0 -0 -0 nan
nan -0 -0 0 0 0 0 0 0 0 0 0 -0 0 0 0 0 0 0 0 0 0 0 0 -0 -0 -0 -0 0 0 0 0 0 0 0 -0 -0 0 -0 -0 -0 -0 -0 0 0 0 0 0 0 -0 -0 -0 -0 -0 0 0 0 0 -0 -0 -0 -0 nan
nan nan nan nan nan nan nan nan nan nan nan nan nan nan nan nan nan nan nan nan nan nan nan nan nan nan nan nan nan nan nan nan nan nan nan nan nan nan nan nan nan nan nan nan nan nan nan nan nan nan nan nan nan nan nan nan nan nan nan nan nan nan nan
Wind_Speed
25 25 27 28 31 32 29 27 27 28 28 28 28 28 27 26 27 29 31 32 32 32 32 32 32 32 31 31 32 35 37 40 40 39 41 42 42 43 45 45 42 37 32 29 27 26 26 27 28 30 30 30 30 30 30 29 28 27 27 27 27 26 26
23 24 25 25 27 30 31 30 28 28 28 29 29 29 28 26 25 26 29 30 31 32 32 32 32 32 31 30 31 32 35 38 41 41 41 42 43 44 46 46 44 39 35 33 30 28 26 25 26 28 29 28 29 28 28 27 27 27 26 26 26 26 26
23 24 23 24 25 27 29 31 29 27 28 29 30 30 29 28 26 25 27 29 31 32 32 32 33 33 32 31 31 31 32 35 38 40 41 42 43 44 45 46 45 41 38 37 34 32 30 28 28 29 29 28 27 27 27 27 27 26 27 27 27 26 26
26 26 26 26 26 26 27 29 29 29 27 27 28 29 29 30 29 27 27 29 31 31 31 32 33 34 34 33 33 33 33 34 36 38 39 40 41 43 44 44 45 43 41 40 37 35 33 31 30 29 29 28 28 28 29 28 27 27 28 28 28 28 27
27 28 29 30 29 28 28 28 29 30 30 28 27 28 29 30 29 28 27 27 28 29 30 31 32 32 33 34 35 36 36 37 38 38 39 39 40 41 43 44 44 43 42 41 39 37 35 32 31 30 29 29 30 30 31 30 29 29 29 29 29 28 27
31 32 34 35 33 29 27 27 28 28 30 30 30 29 29 30 29 28 28 27 26 26 27 29 31 32 33 35 35 36 37 37 38 39 39 40 40 40 42 43 43 43 42 42 41 39 36 34 33 32 31 31 31 32 32 32 32 31 30 29 28 28 27
34 34 34 36 35 30 26 27 28 28 29 30 30 31 32 31 29 28 28 29 28 27 26 26 28 29 31 33 35 35 36 37 38 38 39 39 39 39 41 42 42 42 42 41 40 39 38 37 36 34 32 31 31 31 32 33 32 31 29 28 27 26 25
32 32 33 35 34 30 27 27 28 29 30 30 31 31 32 32 31 30 30 30 30 30 29 27 26 26 28 30 33 34 36 37 38 38 39 39 39 39 40 42 42 42 42 41 40 39 38 37 36 34 32 30 30 32 33 33 32 30 28 27 25 24 23
29 29 31 33 32 30 29 28 28 29 30 31 31 30 29 28 29 30 31 32 32 32 31 30 28 27 27 28 29 32 33 35 37 38 39 39 39 40 40 41 42 42 42 42 41 40 37 36 36 35 34 33 33 34 33 32 31 30 27 25 24 24 24
25 27 29 31 30 29 29 28 29 29 28 29 29 28 28 27 28 29 30 32 33 34 34 33 31 29 27 26 26 28 30 32 34 36 38 39 39 40 41 42 43 42 42 43 43 43 40 38 37 37 37 36 34 33 32 31 31 29 26 24 23 24 24
23 24 26 27 28 27 27 28 28 28 27 26 26 26 28 29 30 30 31 32 32 33 34 33 30 29 27 25 23 24 27 30 32 33 35 37 39 40 41 42 43 43 44 43 44 44 43 42 40 38 37 35 32 32 32 32 30 28 26 25 26 26 26
21 23 24 25 26 27 27 27 27 27 25 24 25 25 27 29 30 30 31 32 32 32 32 31 30 29 27 24 22 21 23 27 30 31 33 36 38 39 40 41 41 42 42 43 43 44 43 43 41 38 36 34 31 31 31 30 28 27 26 27 28 29 27
19 21 21 22 23 24 25 25 25 25 25 24 24 24 25 27 29 30 31 32 32 33 32 31 31 30 28 26 25 24 24 25 28 30 31 34 36 38 39 40 40 41 40 39 41 42 43 43 41 39 37 34 30 30 31 30 29 27 27 28 29 30 27
18 19 19 19 19 21 23 24 24 25 25 25 25 25 25 27 29 31 32 33 32 32 31 31 31 32 32 31 28 28 27 26 27 30 33 34 36 38 39 39 39 40 39 38 37 38 39 39 39 37 36 33 29 29 30 30 28 27 27 29 29 28 23
17 16 15 16 18 20 21 20 19 20 21 21 21 22 23 24 26 29 31 32 32 31 31 31 31 32 33 33 31 32 32 29 28 31 34 35 37 38 39 39 39 39 39 38 37 35 34 34 35 34 33 31 29 30 30 28 26 26 27 27 26 24 21
17 14 16 18 19 20 20 18 17 18 19 19 20 20 21 23 25 28 30 31 32 31 31 31 30 30 31 33 34 35 35 31 29 31 35 37 37 37 38 39 38 37 37 37 35 33 31 30 30 31 31 30 29 29 28 26 26 25 25 25 24 23 21
15 15 17 19 20 21 22 21 20 20 22 22 22 22 23 24 26 28 31 32 31 31 31 30 30 30 32 33 35 36 36 33 31 32 35 37 37 37 37 38 37 35 34 34 33 33 30 28 28 29 29 29 28 27 26 25 26 25 24 23 22 21 19
17 18 17 19 20 21 22 23 23 22 23 24 23 22 24 26 28 30 31 31 31 31 31 31 31 31 32 32 33 34 35 34 32 33 35 37 37 37 37 37 36 34 32 30 31 32 30 28 28 28 28 28 27 27 26 25 24 22 21 21 19 18 16
19 20 19 19 19 19 21 23 23 23 24 25 24 25 25 26 28 30 31 31 31 31 32 32 32 31 29 27 28 30 31 32 32 32 35 37 38 38 38 37 36 35 32 28 28 30 31 30 30 29 28 28 28 27 26 23 21 19 18 17 16 14 13
18 19 19 18 18 18 20 22 24 25 26 27 27 27 27 27 27 28 29 30 30 30 31 31 30 27 24 22 22 25 26 28 31 31 33 37 39 38 37 36 34 34 33 30 29 31 33 33 33 31 29 28 27 25 23 20 18 16 15 14 13 12 12
19 20 19 18 18 19 20 22 25 26 25 24 24 24 25 25 26 26 27 28 28 29 28 26 23 21 20 19 19 19 20 24 29 30 31 35 37 35 34 33 32 33 34 32 31 31 32 32 31 30 28 26 24 22 19 16 14 13 13 12 12 11 12
19 17 17 19 21 22 22 23 24 23 20 19 19 19 19 19 21 24 24 25 26 25 23 20 18 17 17 16 16 16 17 22 28 29 28 30 32 31 31 32 32 34 36 34 31 29 29 28 28 28 26 24 22 18 14 12 12 11 12 11 11 10 11
16 15 16 20 22 22 22 21 19 19 18 16 16 16 15 14 17 19 19 19 20 18 16 15 14 13 13 13 14 15 16 22 28 27 23 24 28 30 32 32 33 35 36 34 31 29 28 28 27 26 24 20 17 13 11 11 11 11 11 11 10 10 11
15 16 19 21 22 20 20 20 19 19 18 16 15 14 11 10 12 12 11 11 12 11 11 11 10 10 12 13 14 16 18 22 27 26 19 20 26 29 31 32 32 34 34 33 32 31 29 27 26 23 19 16 13 11 11 12 12 11 11 10 10 10 10
18 19 20 20 21 20 19 20 20 19 16 15 13 10 6 7 6 6 5 6 7 6 6 8 9 11 13 14 16 18 19 22 27 24 18 21 26 28 28 29 30 31 32 33 33 31 29 27 24 20 16 13 11 12 13 13 12 11 10 10 9 8 8
21 21 20 19 18 17 17 18 19 18 15 13 10 4 4 4 4 4 4 5 5 6 6 8 10 13 15 16 18 19 20 24 26 22 19 25 28 26 25 26 26 28 30 32 32 30 28 25 21 17 14 13 13 14 14 12 11 10 9 8 7 6 7
26 24 22 19 17 16 15 16 17 16 14 11 6 3 6 6 6 6 6 6 7 7 7 8 12 16 16 18 20 20 19 23 25 23 24 28 27 22 21 22 22 24 27 28 29 28 24 20 17 15 14 15 15 15 13 11 10 9 8 7 6 5 5
27 27 25 21 19 19 17 13 13 14 14 9 2 6 9 9 8 7 7 7 7 8 9 12 16 18 18 19 20 20 21 24 26 25 25 28 26 22 20 20 20 23 24 25 25 22 19 17 17 17 17 16 15 14 12 10 9 8 6 5 4 4 4
23 24 24 21 20 20 16 10 9 12 13 8 2 9 11 10 8 7 8 8 9 11 14 18 20 20 20 21 21 22 25 28 27 25 26 27 24 21 20 20 21 23 23 22 20 18 18 19 20 19 18 16 15 13 12 9 8 6 4 3 3 3 4
17 17 19 19 17 14 10 6 6 10 12 6 4 10 12 9 7 8 10 10 11 13 17 20 20 20 22 23 23 26 29 29 26 26 27 25 21 19 19 20 20 20 20 19 18 18 20 21 20 19 18 16 14 13 11 9 7 5 3 2 2 3 4
16 17 18 18 15 9 4 3 4 7 7 2 6 10 10 8 7 8 10 11 11 15 18 19 20 22 23 24 25 27 28 26 23 23 24 23 20 19 18 18 18 18 18 19 20 22 22 21 19 18 17 15 13 12 9 8 6 4 2 1 2 3 5
17 18 16 16 14 10 7 5 3 3 1 5 9 9 9 9 8 8 10 10 11 15 18 19 20 23 24 24 24 25 25 23 20 21 22 22 21 19 16 15 17 19 20 21 23 23 22 20 18 17 16 14 12 10 8 7 5 3 1 2 3 5 7
15 17 16 16 13 10 7 5 2 1 4 9 11 9 9 10 8 8 9 8 10 14 17 18 19 22 23 22 22 23 23 22 20 20 20 20 18 15 14 15 17 20 22 22 22 21 20 19 18 16 15 13 11 9 7 5 3 1 1 3 5 7 8
14 16 17 16 15 11 8 6 5 6 9 12 12 9 9 11 10 9 8 7 8 12 15 16 17 20 21 21 20 21 22 21 20 19 18 16 14 11 12 16 20 23 23 22 22 21 19 18 17 15 13 11 9 7 5 3 1 1 3 5 6 8 9
15 17 17 16 16 14 11 9 8 9 11 12 12 12 12 13 14 12 10 10 10 12 14 15 15 17 20 20 19 20 21 20 19 18 16 14 12 11 13 18 23 24 23 22 21 20 19 17 15 13 11 9 7 6 4 3 2 3 4 6 8 9 11
14 16 15 14 15 15 12 10 9 9 11 12 15 16 13 12 13 11 10 12 13 13 14 15 15 17 18 19 19 19 20 19 18 17 16 14 11 11 16 21 23 24 23 21 20 18 17 15 13 11 9 8 6 5 4 3 4 5 6 7 9 11 12
Wind_Direction
271 275 273 268 265 265 265 264 262 262 263 263 263 264 262 255 253 252 250 249 247 246 245 244 244 244 244 242 238 235 232 231 231 230 230 230 230 229 227 226 226 227 228 229 232 233 233 231 228 230 233 236 239 239 240 241 241 240 241 243 245 247 247
267 269 271 272 268 263 261 262 260 257 258 260 261 263 264 259 254 253 252 251 248 247 245 244 244 244 244 241 239 238 236 234 233 232 231 231 230 229 228 227 225 224 224 224 224 223 223 220 220 225 229 232 237 240 240 239 237 238 240 242 245 246 247
278 277 275 274 276 271 262 260 261 258 254 254 255 258 262 262 258 256 254 252 251 248 245 242 241 242 242 240 239 239 239 238 236 235 234 232 231 230 231 228 224 221 221 222 222 222 221 218 216 220 226 232 237 239 240 239 238 240 243 244 245 247 248
284 285 284 280 279 278 269 260 258 258 256 254 254 254 256 259 261 261 258 254 251 250 248 244 241 241 240 237 237 238 239 239 237 236 236 236 235 234 233 229 224 220 219 221 222 222 224 223 220 221 225 230 234 236 239 241 242 243 244 246 248 249 249
280 281 283 282 279 277 273 264 256 255 256 256 256 254 254 255 258 261 262 259 253 248 246 245 244 244 241 237 236 237 238 238 237 236 236 236 236 235 233 229 224 220 219 221 223 223 223 223 223 223 225 229 233 235 238 241 244 245 246 247 249 251 252
273 274 277 277 275 272 272 267 259 257 256 255 255 254 253 254 255 256 257 259 258 252 246 243 243 244 242 240 239 240 240 239 238 237 236 236 236 235 232 228 225 221 218 219 223 224 223 222 223 223 224 228 233 235 238 241 243 244 245 246 248 250 253
271 271 271 270 268 265 267 266 261 260 260 258 255 252 250 252 253 253 252 254 256 256 252 245 242 242 241 241 242 243 243 243 241 240 239 239 238 235 232 228 224 221 217 216 217 220 223 224 224 225 226 230 234 235 237 240 241 242 242 244 246 250 254
272 271 270 266 261 258 259 261 259 260 261 259 258 255 252 250 249 249 250 251 253 256 257 254 248 245 244 243 244 245 246 245 245 243 241 240 238 234 231 228 223 219 216 213 212 214 219 221 223 224 225 227 229 230 232 234 237 241 243 244 248 252 256
269 269 270 265 258 253 253 255 258 261 260 258 259 260 258 253 249 247 247 250 253 256 258 257 255 253 250 247 246 246 247 247 248 248 245 242 237 233 230 227 223 218 214 211 209 210 212 216 220 221 220 221 224 228 230 233 236 239 242 246 250 253 255
270 270 272 264 256 253 252 253 257 259 259 258 256 257 257 255 252 250 248 249 251 253 255 256 259 260 259 256 253 249 248 248 249 250 250 246 241 235 230 225 221 219 215 212 210 209 209 212 217 220 221 224 227 230 231 233 235 237 239 242 244 246 247
273 273 272 264 259 258 255 253 257 260 261 262 258 255 255 253 251 252 253 252 251 252 254 257 260 262 262 262 259 253 250 248 248 250 250 247 243 240 236 231 225 221 217 213 212 211 210 212 216 219 221 223 227 230 231 232 235 237 237 238 240 241 243
271 268 267 264 263 263 260 258 261 263 265 265 262 260 256 252 251 252 253 254 254 254 255 257 258 260 263 267 267 263 257 251 249 251 250 247 244 241 239 237 235 230 224 219 215 212 212 214 216 218 220 221 224 229 230 230 233 235 236 239 242 244 246
271 267 267 266 266 265 264 264 264 266 268 268 266 263 257 252 251 252 253 254 254 254 253 254 256 259 264 269 270 270 266 258 252 251 250 247 244 240 238 237 236 236 235 231 225 219 218 218 218 219 222 225 227 229 228 227 228 231 235 239 242 246 250
279 274 273 273 272 269 269 269 267 268 269 269 265 261 258 254 252 252 252 253 253 254 254 254 255 257 260 262 263 265 266 263 255 248 245 242 239 236 235 234 232 232 233 233 232 230 227 226 225 226 228 230 229 229 229 228 229 231 235 238 242 248 254
297 288 283 281 281 279 279 278 276 274 272 269 265 260 258 257 253 250 249 250 252 254 255 256 257 258 259 259 261 263 262 260 256 247 240 236 233 231 230 230 230 229 229 228 229 232 232 232 231 231 230 229 227 226 227 228 229 231 235 239 245 251 256
305 298 289 285 284 283 283 283 283 282 281 278 273 267 262 258 254 252 252 253 254 254 256 258 259 260 259 258 260 260 257 254 251 244 236 231 228 227 226 226 226 227 227 227 227 228 229 230 229 228 225 224 223 223 223 224 225 228 234 240 247 254 256
301 294 286 282 279 278 279 282 283 283 282 280 275 270 265 260 257 256 257 258 257 256 258 261 262 262 261 259 259 258 254 250 245 238 231 227 223 221 220 221 221 221 223 225 226 226 225 224 223 222 220 219 220 222 224 224 225 228 235 242 248 254 254
307 300 289 283 280 280 281 281 281 280 280 281 277 272 268 264 261 261 261 261 260 260 261 263 264 264 262 260 258 254 249 244 238 232 226 222 219 216 215 215 215 213 214 218 221 222 221 218 217 217 216 216 218 221 223 225 228 232 238 242 246 250 251
307 300 295 293 291 289 289 288 288 288 286 284 280 275 272 269 267 266 264 262 262 261 261 262 263 263 261 257 253 250 244 236 231 229 223 217 214 211 210 213 213 208 204 203 206 211 211 210 211 212 213 215 217 219 223 226 230 232 236 241 243 244 247
305 301 303 305 302 298 298 297 296 294 289 283 279 275 273 269 266 264 262 261 261 260 260 261 261 258 252 247 244 243 238 227 223 225 221 214 212 210 209 210 209 204 199 194 196 202 205 206 209 211 212 215 218 221 223 225 228 231 235 238 237 235 242
302 301 305 308 308 306 305 301 299 297 292 286 281 277 273 267 261 257 257 258 258 258 259 259 256 247 240 236 232 232 229 219 216 220 219 213 212 213 211 209 205 198 194 193 197 201 204 206 210 211 212 216 220 222 222 222 227 233 234 232 231 234 244
309 305 308 313 314 312 308 305 305 306 303 295 287 280 274 266 258 253 253 254 255 255 254 252 246 239 234 227 217 215 215 210 208 213 215 213 212 212 209 207 200 193 191 192 196 200 203 205 207 207 209 214 218 220 220 223 228 230 228 228 231 239 250
323 313 311 314 313 312 311 312 316 321 317 305 294 289 280 265 255 252 253 254 252 251 248 242 236 230 223 214 203 197 196 198 202 207 210 209 206 205 205 203 196 191 190 191 194 200 203 204 204 206 209 212 215 219 224 226 224 220 220 226 234 242 252
329 314 311 312 312 316 322 324 327 330 323 310 304 301 285 257 247 248 250 248 245 242 239 232 219 204 199 194 186 183 184 190 198 204 204 195 193 197 202 200 194 191 190 191 196 202 204 203 204 208 212 214 217 221 221 217 214 214 218 226 235 243 252
329 320 317 315 316 322 324 323 326 329 324 314 312 304 267 231 228 231 230 230 227 222 223 216 195 177 177 177 174 175 178 185 194 199 192 181 184 194 200 197 193 191 191 193 198 202 203 204 206 210 213 216 214 211 207 205 208 213 219 225 231 240 249
335 329 324 318 318 320 316 314 322 329 328 323 316 289 206 191 199 199 203 212 208 201 205 199 175 161 163 166 166 169 176 183 187 186 176 176 185 194 196 193 191 191 192 195 198 201 203 205 208 210 209 205 199 196 197 201 206 209 212 217 222 231 245
333 329 327 321 314 309 305 310 320 327 330 329 312 210 174 185 201 195 191 197 199 200 198 179 160 154 156 159 161 167 175 177 174 169 169 176 185 190 190 190 192 194 195 197 198 201 203 204 204 201 196 191 188 189 192 194 196 200 204 211 219 230 246
325 320 319 314 305 300 301 309 315 318 324 330 284 186 184 196 202 187 174 174 175 176 168 154 150 150 150 154 161 165 167 166 164 166 172 179 183 186 187 188 191 194 196 197 199 199 198 194 190 187 183 182 182 183 183 184 188 194 202 213 228 246 259
316 311 311 309 302 297 297 304 309 309 315 322 223 194 199 203 197 179 169 166 161 158 154 151 152 152 152 157 164 165 164 165 166 169 175 179 182 186 188 187 189 192 193 195 196 193 186 181 180 178 176 176 176 176 176 179 184 191 201 218 247 268 277
329 329 329 329 322 307 292 290 296 297 303 307 200 198 206 206 194 178 170 167 166 162 157 155 155 156 158 163 166 165 165 167 168 170 174 177 180 182 182 182 185 188 189 189 186 181 178 177 176 174 172 172 173 173 174 175 177 183 198 225 264 289 302
10 6 356 354 358 7 10 336 303 295 296 263 175 194 205 199 190 182 175 176 175 168 162 160 159 160 163 167 167 167 168 168 168 171 172 172 170 171 174 177 181 183 183 181 176 174 174 175 173 172 171 170 171 172 171 170 172 178 196 244 306 321 328
26 22 15 12 17 24 16 356 330 308 309 146 162 187 195 184 179 177 173 178 182 173 167 165 165 165 167 169 169 170 171 170 169 169 168 166 165 165 168 174 178 178 175 174 172 172 173 172 171 172 171 169 169 170 169 170 173 177 202 325 339 341 341
33 30 24 17 11 7 5 9 30 78 117 137 155 178 182 171 168 170 168 173 180 176 171 170 170 170 171 172 173 174 175 175 174 169 166 166 166 166 167 172 174 172 170 170 171 172 171 171 171 172 171 169 169 170 171 173 175 194 329 344 346 343 342
33 29 24 20 17 17 24 43 70 100 120 135 151 168 170 161 160 165 168 168 172 176 175 176 176 175 175 177 180 180 180 180 179 176 172 171 171 173 175 174 173 172 171 171 172 172 172 172 172 172 172 172 172 173 179 185 205 299 330 341 341 338 338
24 24 27 29 27 24 28 44 70 105 123 135 149 158 160 161 162 163 166 168 172 178 180 179 180 180 181 184 187 189 188 186 184 183 181 178 177 181 181 177 174 174 175 174 173 174 174 174 173 174 176 180 181 186 199 223 266 306 323 330 333 334 335
18 22 29 38 37 34 38 51 75 105 120 132 150 160 165 168 166 161 163 169 174 178 180 183 184 184 185 188 192 193 193 190 187 185 184 183 186 188 183 178 176 176 177 176 175 175 176 176 177 181 185 191 198 208 232 259 283 303 315 322 327 331 333
Height
1360 1360 1360 1360 1360 1360 1360 1360 1360 1360 1360 1360 1360 1360 1361 1361 1362 1363 1363 1364 1365 1366 1368 1368 1369 1369 1370 1372 1374 1376 1378 1381 1383 1386 1389 1392 1394 1397 1400 1402 1403 1403 1403 1403 1403 1404 1405 1409 1413 1416 1418 1420 1422 1423 1424 1425 1427 1429 1431 1432 1434 1436 1438
1355 1355 1356 1356 1356 1356 1357 1356 1356 1357 1357 1357 1357 1357 1357 1358 1359 1359 1360 1361 1362 1363 1364 1364 1365 1366 1367 1369 1370 1372 1374 1377 1379 1381 1384 1386 1389 1391 1394 1397 1399 1400 1400 1399 1399 1399 1401 1405 1409 1411 1413 1416 1418 1420 1421 1422 1423 1425 1426 1428 1430 1432 1434
1351 1351 1351 1352 1352 1352 1353 1353 1353 1353 1353 1353 1353 1353 1354 1354 1355 1356 1357 1357 1358 1359 1360 1361 1361 1362 1363 1365 1366 1368 1370 1372 1374 1376 1379 1381 1384 1386 1389 1392 1394 1395 1395 1395 1395 1395 1397 1401 1405 1407 1409 1412 1414 1417 1418 1419 1420 1422 1423 1424 1426 1428 1430
1348 1348 1348 1348 1348 1348 1349 1349 1349 1349 1349 1349 1350 1350 1351 1351 1351 1352 1353 1353 1354 1355 1357 1358 1358 1359 1360 1361 1363 1364 1366 1367 1369 1371 1374 1376 1379 1382 1384 1387 1389 1391 1391 1390 1390 1391 1393 1397 1401 1404 1406 1408 1411 1413 1415 1416 1417 1418 1419 1420 1422 1424 1426
1344 1344 1344 1344 1344 1344 1344 1345 1345 1345 1346 1346 1346 1347 1347 1348 1349 1349 1349 1349 1350 1351 1353 1354 1355 1355 1357 1358 1359 1360 1362 1363 1365 1367 1369 1372 1375 1377 1380 1382 1384 1386 1387 1387 1386 1387 1390 1394 1398 1401 1402 1404 1406 1409 1411 1413 1414 1415 1415 1416 1418 1419 1421
1340 1340 1340 1339 1340 1340 1340 1340 1341 1341 1342 1342 1343 1343 1344 1345 1346 1346 1346 1346 1347 1348 1349 1350 1351 1352 1353 1354 1355 1357 1358 1360 1361 1363 1365 1368 1370 1373 1376 1378 1380 1381 1382 1383 1383 1384 1386 1390 1393 1396 1398 1399 1402 1405 1408 1410 1410 1411 1411 1412 1413 1415 1417
1335 1336 1335 1335 1335 1335 1336 1336 1337 1337 1338 1338 1339 1340 1340 1341 1342 1342 1343 1343 1344 1344 1345 1346 1347 1349 1350 1350 1351 1353 1355 1356 1358 1360 1361 1363 1366 1368 1371 1373 1375 1376 1377 1379 1380 1381 1382 1385 1388 1391 1394 1396 1398 1401 1404 1406 1406 1407 1407 1408 1409 1411 1413
1330 1330 1330 1330 1331 1331 1332 1332 1332 1333 1333 1334 1335 1335 1336 1337 1337 1338 1339 1340 1340 1341 1341 1342 1343 1344 1346 1347 1348 1349 1351 1353 1354 1356 1357 1359 1361 1363 1366 1368 1370 1371 1372 1374 1376 1377 1378 1380 1383 1386 1389 1391 1393 1395 1398 1401 1403 1403 1403 1404 1406 1407 1409
1325 1325 1325 1326 1326 1327 1327 1328 1328 1329 1329 1330 1330 1331 1332 1332 1333 1334 1335 1336 1336 1337 1337 1338 1339 1340 1341 1343 1344 1346 1348 1349 1350 1352 1353 1355 1356 1358 1360 1363 1365 1367 1368 1369 1372 1373 1374 1376 1378 1381 1383 1384 1386 1390 1395 1398 1399 1399 1400 1401 1403 1404 1405
1320 1320 1320 1321 1321 1322 1323 1324 1324 1325 1325 1326 1326 1327 1328 1328 1329 1330 1331 1332 1332 1333 1333 1334 1334 1335 1337 1338 1340 1342 1343 1345 1346 1347 1348 1350 1352 1353 1355 1357 1359 1362 1363 1364 1365 1368 1369 1370 1372 1374 1376 1378 1382 1387 1393 1395 1395 1395 1397 1399 1400 1401 1402
1316 1316 1316 1317 1317 1318 1319 1319 1320 1321 1321 1322 1323 1323 1324 1324 1325 1326 1326 1327 1327 1328 1329 1329 1330 1331 1333 1334 1335 1337 1339 1340 1342 1343 1344 1346 1347 1349 1350 1352 1354 1356 1358 1360 1361 1362 1364 1365 1367 1369 1372 1375 1380 1384 1388 1390 1391 1392 1393 1395 1396 1398 1399
1312 1312 1312 1313 1314 1314 1315 1316 1316 1317 1318 1318 1319 1320 1320 1320 1321 1321 1322 1322 1322 1323 1324 1325 1326 1327 1328 1330 1331 1333 1334 1336 1337 1339 1340 1342 1343 1345 1347 1348 1349 1351 1353 1355 1357 1358 1359 1361 1363 1366 1368 1372 1377 1380 1384 1386 1387 1387 1389 1391 1393 1394 1396
1309 1309 1309 1309 1310 1310 1311 1312 1312 1313 1314 1314 1315 1315 1316 1316 1316 1317 1317 1317 1318 1318 1320 1321 1322 1323 1324 1325 1327 1328 1330 1331 1333 1335 1336 1338 1339 1341 1343 1345 1347 1348 1350 1352 1353 1355 1356 1357 1360 1363 1364 1369 1374 1377 1379 1381 1382 1383 1385 1388 1390 1391 1394
1306 1306 1306 1306 1306 1307 1307 1308 1309 1309 1310 1310 1311 1311 1312 1312 1312 1312 1312 1312 1313 1314 1315 1316 1318 1318 1319 1320 1322 1324 1325 1326 1328 1330 1331 1333 1335 1337 1339 1341 1343 1346 1347 1349 1351 1352 1354 1356 1358 1361 1363 1367 1371 1374 1375 1376 1378 1380 1382 1384 1387 1389 1391
1303 1303 1303 1303 1303 1303 1303 1304 1305 1305 1305 1306 1306 1307 1308 1308 1307 1307 1307 1307 1308 1310 1311 1312 1313 1314 1314 1315 1317 1318 1320 1322 1324 1325 1326 1328 1330 1332 1334 1337 1339 1342 1344 1346 1348 1350 1352 1354 1356 1359 1362 1365 1368 1370 1372 1374 1375 1377 1379 1382 1384 1386 1388
1301 1301 1301 1301 1301 1300 1300 1300 1301 1301 1301 1302 1302 1303 1303 1303 1303 1302 1302 1303 1304 1305 1306 1307 1308 1309 1310 1310 1311 1312 1314 1316 1318 1320 1321 1323 1325 1328 1331 1333 1336 1339 1341 1344 1346 1348 1350 1352 1354 1357 1360 1362 1365 1367 1369 1370 1372 1374 1376 1379 1381 1383 1384
1299 1299 1299 1298 1298 1298 1297 1297 1298 1298 1298 1298 1298 1299 1299 1299 1298 1298 1297 1298 1299 1300 1301 1301 1303 1304 1305 1305 1306 1307 1309 1310 1313 1315 1316 1319 1321 1324 1327 1330 1333 1337 1339 1342 1344 1346 1348 1350 1353 1355 1358 1360 1362 1364 1366 1367 1369 1371 1374 1376 1378 1379 1380
1296 1296 1296 1295 1295 1295 1294 1294 1294 1295 1294 1294 1294 1294 1294 1294 1293 1293 1292 1293 1294 1295 1296 1296 1297 1298 1299 1299 1300 1302 1304 1305 1307 1310 1312 1314 1317 1320 1323 1326 1330 1334 1337 1340 1343 1344 1347 1349 1352 1354 1356 1358 1359 1361 1362 1364 1367 1369 1371 1373 1375 1376 1377
1294 1293 1292 1292 1292 1291 1291 1290 1290 1290 1290 1289 1289 1289 1289 1289 1288 1287 1287 1288 1289 1290 1291 1291 1292 1293 1293 1294 1296 1298 1300 1301 1303 1305 1308 1310 1313 1316 1318 1322 1326 1330 1334 1337 1340 1341 1344 1347 1349 1351 1353 1355 1356 1358 1360 1362 1365 1367 1368 1370 1372 1373 1373
1291 1290 1289 1289 1289 1288 1287 1286 1286 1286 1285 1284 1284 1284 1283 1283 1283 1282 1283 1283 1284 1285 1285 1286 1287 1288 1289 1290 1292 1295 1297 1298 1299 1301 1304 1307 1309 1312 1315 1319 1323 1327 1331 1334 1337 1338 1341 1343 1346 1348 1350 1351 1353 1355 1358 1361 1362 1364 1366 1367 1369 1370 1370
1288 1288 1287 1287 1286 1285 1284 1283 1282 1281 1280 1279 1278 1278 1278 1278 1277 1278 1278 1279 1279 1280 1281 1282 1283 1284 1286 1288 1290 1292 1295 1297 1298 1300 1302 1305 1307 1310 1314 1318 1322 1326 1328 1331 1334 1336 1339 1342 1344 1346 1348 1349 1351 1354 1357 1359 1360 1362 1363 1365 1366 1367 1367
1287 1286 1285 1284 1283 1282 1281 1280 1278 1277 1275 1274 1274 1273 1273 1273 1273 1273 1274 1275 1275 1276 1278 1279 1281 1282 1283 1285 1287 1290 1293 1296 1298 1299 1302 1304 1307 1310 1314 1317 1320 1323 1326 1328 1332 1335 1338 1341 1342 1344 1346 1348 1350 1353 1355 1357 1358 1359 1361 1362 1364 1365 1365
1285 1285 1284 1282 1281 1280 1279 1277 1275 1274 1272 1271 1270 1270 1269 1270 1270 1270 1271 1272 1273 1275 1276 1277 1279 1280 1282 1284 1286 1288 1291 1295 1297 1299 1301 1304 1307 1309 1312 1315 1319 1321 1324 1327 1331 1335 1337 1339 1341 1342 1344 1347 1349 1351 1353 1355 1356 1358 1359 1361 1362 1363 1364
1285 1283 1282 1280 1278 1277 1276 1275 1273 1272 1270 1269 1268 1267 1267 1268 1268 1269 1270 1271 1272 1274 1275 1276 1278 1279 1281 1283 1285 1287 1291 1294 1296 1298 1301 1304 1306 1308 1311 1314 1317 1319 1323 1327 1331 1333 1336 1338 1340 1341 1343 1346 1348 1350 1352 1353 1355 1356 1358 1359 1360 1361 1362
1283 1281 1280 1278 1276 1275 1274 1273 1272 1271 1269 1267 1266 1266 1266 1267 1268 1269 1270 1271 1272 1273 1274 1276 1277 1279 1280 1283 1285 1288 1291 1293 1295 1298 1302 1304 1306 1307 1310 1313 1316 1319 1322 1326 1329 1332 1335 1337 1339 1341 1343 1345 1347 1349 1351 1352 1354 1355 1356 1357 1359 1360 1360
1281 1279 1278 1276 1275 1274 1273 1272 1271 1269 1268 1266 1266 1266 1267 1268 1269 1269 1270 1271 1272 1273 1274 1276 1278 1279 1281 1283 1286 1288 1290 1293 1295 1298 1302 1304 1305 1307 1310 1313 1315 1318 1322 1326 1329 1332 1334 1336 1338 1340 1342 1344 1346 1348 1350 1351 1353 1354 1355 1356 1358 1358 1358
1280 1278 1276 1274 1273 1273 1272 1271 1270 1269 1267 1266 1266 1266 1267 1268 1269 1270 1270 1271 1272 1274 1275 1277 1278 1280 1282 1284 1286 1288 1291 1293 1296 1299 1301 1303 1306 1309 1311 1313 1316 1319 1322 1326 1329 1331 1334 1336 1338 1339 1341 1343 1346 1347 1349 1351 1352 1353 1354 1355 1356 1356 1356
1279 1276 1275 1273 1272 1271 1270 1270 1269 1268 1267 1267 1266 1267 1268 1268 1269 1270 1271 1272 1273 1274 1276 1277 1279 1281 1283 1285 1287 1289 1292 1294 1296 1299 1301 1304 1307 1309 1311 1314 1317 1320 1323 1326 1328 1330 1333 1335 1337 1339 1341 1343 1345 1347 1348 1350 1351 1352 1353 1353 1353 1354 1354
1278 1275 1273 1271 1270 1269 1269 1269 1269 1268 1267 1267 1267 1268 1268 1269 1270 1271 1272 1273 1274 1275 1276 1278 1280 1281 1283 1285 1287 1289 1292 1294 1296 1299 1302 1304 1307 1309 1312 1314 1317 1320 1322 1325 1327 1329 1332 1334 1336 1338 1341 1343 1344 1346 1347 1348 1349 1350 1351 1351 1352 1352 1353
1277 1274 1271 1269 1268 1267 1267 1267 1268 1268 1267 1267 1267 1268 1269 1270 1272 1272 1273 1274 1275 1276 1277 1278 1280 1282 1284 1286 1288 1290 1292 1294 1296 1299 1302 1305 1308 1310 1312 1315 1317 1319 1322 1324 1326 1329 1331 1333 1336 1338 1340 1342 1343 1345 1346 1347 1348 1349 1349 1350 1351 1351 1351
1277 1274 1272 1269 1267 1266 1266 1267 1267 1267 1267 1267 1268 1269 1269 1271 1273 1273 1274 1275 1276 1277 1278 1280 1281 1283 1285 1287 1289 1291 1293 1296 1298 1301 1303 1306 1309 1311 1313 1315 1317 1319 1321 1323 1326 1328 1331 1333 1336 1337 1339 1341 1343 1344 1345 1346 1347 1348 1349 1349 1349 1349 1349
1277 1275 1273 1271 1269 1268 1267 1267 1267 1266 1266 1267 1268 1269 1270 1272 1273 1274 1276 1277 1277 1278 1280 1281 1283 1284 1286 1288 1291 1293 1295 1298 1300 1302 1305 1307 1309 1312 1314 1316 1317 1319 1322 1324 1326 1328 1331 1333 1336 1337 1339 1341 1342 1343 1344 1345 1346 1346 1347 1347 1346 1346 1346
1278 1276 1274 1272 1270 1269 1268 1267 1266 1266 1266 1267 1269 1270 1271 1273 1274 1275 1277 1278 1279 1280 1281 1283 1285 1286 1288 1290 1292 1295 1297 1299 1301 1304 1306 1309 1311 1313 1314 1316 1318 1320 1322 1325 1327 1329 1331 1333 1335 1337 1338 1340 1341 1342 1343 1344 1344 1344 1344 1344 1344 1344 1344
1279 1277 1275 1274 1272 1270 1269 1268 1267 1267 1267 1269 1270 1271 1272 1274 1275 1276 1278 1279 1280 1282 1283 1284 1286 1288 1290 1292 1294 1296 1298 1301 1303 1306 1308 1310 1312 1314 1315 1317 1319 1321 1323 1325 1328 1330 1332 1334 1335 1337 1338 1339 1340 1341 1341 1342 1342 1342 1342 1342 1342 1342 1342
1279 1278 1276 1275 1273 1272 1270 1269 1269 1269 1269 1271 1272 1273 1274 1275 1276 1277 1279 1281 1282 1283 1285 1286 1288 1289 1291 1294 1296 1298 1300 1302 1305 1307 1309 1311 1313 1315 1316 1317 1319 1322 1324 1326 1328 1330 1332 1333 1335 1336 1337 1338 1338 1339 1339 1340 1340 1340 1341 1341 1341 1341 1340
1280 1279 1278 1277 1275 1274 1273 1272 1271 1271 1272 1273 1274 1275 1275 1276 1277 1278 1280 1281 1283 1285 1286 1288 1289 1291 1293 1295 1297 1299 1301 1304 1306 1308 1310 1312 1314 1315 1316 1318 1320 1322 1324 1326 1328 1330 1331 1333 1334 1335 1336 1337 1337 1338 1338 1338 1339 1339 1339 1339 1339 1338 1338